Location: Unspecified
(42.3650°N, 71.1030°W)
Time: 17:29:24
(UTC+00:00)

Transit 4A - Pass Details

Date: 25 June 2024
Orbit: 870 x 973 km, 66.8° (Epoch: 17 July)

Event Time Altitude Azimuth Distance (km) Brightness Sun altitude
Rises 03:36:50 0° 243° (WSW) 3,459 10.8 -22.3°
Reaches altitude 10° 03:39:39 10° 254° (WSW) 2,518 10.2 -22.4°
Maximum altitude 03:44:38 29° 313° (NW) 1,550 9.6 -22.7°
Drops below altitude 10° 03:49:39 10° 13° (NNE) 2,529 11.0 -22.9°
Sets 03:52:30 0° 25° (NNE) 3,477 11.7 -23.1°
